Temp
74 73 73 72 71 70 69 67 67 66 66 65 65 64 65 65 64 63 63 63 63 63 63 63 63 63 62 62 62 62 62 61 59 62 62 66 67 68 69 69 72 71 72
75 74 73 72 69 68 69 67 66 66 64 65 65 65 65 64 63 64 63 63 63 63 63 62 62 66 60 60 60 60 60 61 61 59 61 63 65 67 67 67 72 77 72
74 73 72 71 71 70 67 66 65 64 64 65 65 64 64 64 64 63 63 62 62 63 63 63 63 62 60 58 58 58 59 61 60 60 60 61 63 65 66 68 71 69 76
73 72 72 71 70 69 67 64 64 64 64 64 64 65 64 64 64 64 63 62 61 62 62 62 62 62 61 59 59 58 58 57 58 58 59 60 62 64 64 63 67 66 66
72 73 72 71 68 68 66 64 64 63 65 65 64 64 64 65 67 63 63 62 61 61 61 62 62 64 67 63 60 59 57 56 56 56 57 58 59 60 59 61 61 62 67
71 71 70 68 66 67 65 64 63 63 64 64 64 64 63 69 67 67 64 60 60 60 59 60 61 66 67 68 68 67 63 57 56 55 56 57 58 59 59 57 57 58 61
67 68 67 66 65 65 64 63 62 63 63 63 63 63 63 63 66 68 68 60 59 58 58 59 62 67 64 60 63 63 62 64 64 58 57 57 58 59 58 57 56 56 57
64 66 66 66 66 65 63 63 62 61 62 62 62 62 62 63 64 65 68 60 58 58 58 58 58 59 59 59 57 56 55 56 58 60 59 59 62 61 59 58 57 57 58
64 64 65 66 66 65 63 63 63 62 61 62 63 62 61 61 62 63 63 58 58 57 57 57 58 57 61 63 56 55 53 53 61 63 62 62 62 62 61 57 57 55 55
64 64 65 65 65 65 64 63 63 63 63 63 62 62 62 61 61 60 61 57 56 54 55 56 61 59 59 60 55 53 51 51 52 53 55 57 59 59 62 59 58 55 53
63 63 66 67 66 66 65 64 64 63 63 62 62 61 61 61 61 59 59 57 56 53 52 53 55 59 57 57 58 52 53 52 55 52 52 53 55 56 57 60 64 58 55
64 65 66 66 66 65 64 64 64 63 62 60 60 59 59 59 59 59 58 58 59 54 54 53 53 56 55 55 55 57 56 57 52 51 50 52 53 56 58 59 63 59 58
66 65 65 65 65 65 64 63 62 62 61 59 58 57 58 59 59 58 58 58 58 55 54 55 56 54 54 54 57 58 58 51 50 50 51 51 52 54 55 57 56 56 55
64 64 65 64 64 64 64 63 62 60 59 59 58 57 57 58 58 58 57 56 58 57 58 54 55 56 57 56 55 55 53 52 51 51 51 51 52 53 53 53 53 53 53
64 64 63 63 63 63 64 63 62 62 61 60 59 59 58 58 59 56 55 56 55 55 53 51 52 52 53 53 53 52 52 52 52 51 51 52 52 52 53 52 52 50 51
63 63 63 63 63 63 62 62 56 55 53 52 51 56 58 55 53 50 48 48 50 50 52 51 51 51 51 51 51 51 51 55 52 52 51 52 53 52 53 52 51 50 50
63 63 64 63 63 62 62 61 60 60 50 49 50 48 48 48 46 48 47 47 48 49 51 50 50 50 50 50 50 49 50 53 52 52 52 52 52 52 52 52 52 51 50
63 56 62 61 61 59 60 59 60 59 58 57 49 50 46 46 45 46 46 50 54 54 53 51 52 52 50 52 52 51 52 52 51 52 52 52 52 52 51 52 51 50 50
62 61 60 59 59 58 59 59 59 59 58 57 56 53 47 44 44 45 47 52 53 53 54 55 57 57 56 56 56 55 55 54 54 54 54 55 55 53 51 51 51 51 51
60 60 59 59 58 58 57 57 56 56 54 53 53 53 55 54 55 53 53 53 55 55 54 55 54 53 53 54 53 52 52 50 49 49 50 51 52 54 55 55 56 55 54
56 57 59 57 57 55 55 54 54 53 52 50 49 49 47 53 52 51 51 50 50 51 50 52 52 53 52 52 49 50 49 48 47 47 47 46 47 47 48 49 50 54 55
57 57 57 54 53 53 51 50 51 50 50 50 48 49 47 47 47 46 47 47 48 48 49 48 49 50 49 48 49 48 48 46 47 45 46 46 46 47 46 47 47 47 48
55 54 55 54 51 51 49 48 48 48 47 47 48 48 48 46 46 46 48 48 47 47 46 47 47 46 48 47 46 45 44 43 43 43 43 43 42 43 43 43 45 45 45
50 50 49 48 48 46 46 46 47 47 47 48 47 47 46 45 46 47 47 47 47 48 47 46 46 47 46 47 45 44 44 43 43 42 42 41 40 40 40 39 39 40 40
50 49 48 47 47 46 46 46 46 46 47 48 47 47 47 47 47 48 49 48 48 47 51 52 52 51 50 47 46 44 42 40 41 40 40 40 40 40 39 39 39 39 39
49 49 48 47 47 47 47 47 47 47 48 49 49 47 47 47 50 50 49 48 48 48 52 53 52 50 49 48 48 44 39 36 38 36 39 38 38 38 38 38 39 38 38
MSLP
1010.94 1011.55 1012.04 1012.53 1012.98 1013.51 1014.02 1014.46 1014.83 1015.14 1015.44 1015.83 1016.23 1016.57 1016.68 1016.73 1016.75 1016.73 1016.83 1016.85 1016.96 1016.95 1017.02 1016.99 1016.95 1016.85 1016.93 1016.91 1016.66 1016.33 1016.20 1016.19 1016.22 1015.62 1015.16 1014.46 1014.15 1013.81 1013.25 1013.04 1012.89 1012.84 1012.78
1010.38 1010.57 1011.02 1011.70 1012.23 1012.64 1012.95 1013.38 1013.89 1014.48 1015.02 1015.41 1015.61 1015.80 1016.01 1016.34 1016.49 1016.60 1016.81 1016.84 1016.80 1016.99 1016.98 1017.00 1017.08 1017.00 1017.09 1017.01 1016.87 1016.76 1016.63 1016.26 1016.23 1016.08 1015.57 1014.95 1014.52 1013.87 1013.44 1013.09 1012.80 1012.62 1012.62
1010.13 1010.64 1011.20 1011.62 1012.24 1012.61 1012.92 1013.47 1014.01 1014.43 1014.61 1014.95 1015.32 1015.73 1015.85 1016.05 1016.20 1016.33 1016.43 1016.58 1016.68 1016.75 1016.71 1016.79 1016.92 1016.97 1017.17 1017.20 1017.08 1016.97 1016.75 1016.42 1016.37 1016.23 1015.94 1015.41 1014.85 1014.45 1013.86 1013.53 1013.30 1012.78 1012.43
1010.34 1010.76 1010.91 1011.21 1011.28 1011.85 1012.72 1013.29 1013.62 1013.91 1014.31 1014.74 1015.09 1015.29 1015.57 1015.76 1015.99 1016.31 1016.51 1016.68 1016.87 1016.89 1016.90 1016.79 1016.75 1016.74 1016.82 1016.91 1017.03 1016.93 1016.83 1016.78 1016.60 1016.48 1016.18 1015.91 1015.53 1015.05 1014.80 1014.57 1013.93 1013.61 1013.23
1009.95 1010.42 1010.74 1011.11 1011.89 1012.24 1012.62 1012.84 1013.49 1014.07 1014.12 1014.34 1014.87 1015.42 1015.80 1016.06 1016.12 1016.26 1016.52 1016.62 1016.71 1016.83 1016.97 1017.08 1017.02 1016.77 1016.64 1016.70 1016.87 1016.83 1016.73 1016.67 1016.62 1016.56 1016.52 1016.19 1015.81 1015.61 1015.46 1015.20 1014.86 1014.32 1013.69
1011.26 1011.31 1011.45 1011.92 1012.38 1012.16 1012.56 1012.96 1013.00 1013.54 1014.34 1014.51 1014.60 1014.80 1015.28 1015.63 1015.88 1016.04 1016.34 1016.44 1016.42 1016.81 1016.85 1016.88 1016.88 1017.04 1017.06 1017.15 1017.15 1017.11 1016.86 1016.69 1016.58 1016.61 1016.58 1016.46 1016.16 1015.95 1015.84 1015.68 1015.39 1014.98 1014.61
1011.98 1012.56 1012.19 1012.52 1012.61 1012.69 1013.39 1013.53 1013.74 1013.32 1013.50 1014.35 1014.83 1015.02 1015.17 1015.49 1015.83 1016.05 1016.23 1016.32 1016.77 1016.80 1016.93 1016.86 1016.57 1016.24 1016.33 1016.51 1016.68 1016.99 1017.21 1016.99 1016.70 1016.52 1016.33 1016.12 1015.89 1015.76 1015.89 1015.83 1015.61 1015.61 1015.40
1012.06 1013.39 1013.47 1012.51 1012.86 1013.63 1013.92 1013.80 1013.75 1013.90 1013.75 1014.02 1014.37 1014.96 1015.31 1015.29 1015.78 1016.11 1016.39 1016.42 1016.51 1016.90 1016.79 1016.98 1016.97 1016.80 1016.56 1016.45 1016.38 1016.57 1016.63 1016.77 1016.78 1016.51 1016.21 1015.95 1015.60 1015.59 1015.62 1015.67 1015.65 1015.65 1015.34
1009.66 1011.03 1012.38 1012.49 1012.40 1012.70 1013.58 1014.92 1014.45 1014.40 1014.48 1013.92 1013.94 1014.54 1014.88 1015.26 1015.44 1015.78 1016.14 1016.77 1016.68 1016.90 1016.61 1016.72 1016.57 1016.78 1016.53 1016.48 1016.76 1016.84 1016.92 1016.55 1016.35 1016.32 1016.00 1015.60 1015.42 1015.18 1015.12 1015.57 1015.59 1015.66 1015.51
1009.74 1008.62 1010.59 1009.80 1010.85 1011.12 1012.08 1013.71 1014.07 1013.93 1014.15 1014.01 1013.95 1013.99 1014.50 1014.80 1015.09 1015.24 1015.89 1016.45 1016.98 1016.59 1016.61 1016.54 1016.18 1016.16 1016.42 1016.32 1016.30 1016.50 1016.49 1016.49 1016.13 1015.99 1016.11 1015.64 1015.27 1014.90 1014.55 1014.66 1014.84 1015.41 1015.54
1010.68 1010.51 1010.11 1009.15 1008.25 1007.82 1009.13 1012.35 1013.27 1013.31 1013.58 1013.72 1013.87 1014.07 1014.33 1014.61 1014.88 1015.06 1015.33 1016.27 1016.52 1016.50 1016.56 1016.66 1016.28 1016.07 1016.38 1016.57 1016.35 1016.40 1016.41 1016.23 1015.86 1015.78 1015.72 1015.64 1015.05 1014.50 1013.94 1013.82 1013.86 1014.40 1014.89
1010.21 1010.04 1009.21 1007.48 1006.98 1007.79 1009.13 1010.30 1012.80 1012.78 1013.34 1013.52 1013.85 1014.16 1014.33 1014.58 1014.86 1014.94 1015.21 1015.57 1016.00 1016.28 1016.49 1016.36 1016.45 1016.11 1016.31 1016.55 1016.32 1015.69 1015.69 1016.20 1016.26 1015.67 1015.52 1015.50 1015.23 1014.45 1013.87 1013.56 1013.45 1013.74 1013.81
1010.32 1010.24 1009.94 1009.39 1008.66 1009.38 1009.85 1011.58 1012.51 1012.43 1012.86 1013.38 1013.89 1014.26 1014.20 1014.44 1014.56 1014.50 1014.79 1014.90 1015.25 1015.68 1015.67 1016.12 1016.11 1016.04 1016.13 1015.99 1015.83 1015.59 1015.48 1015.61 1015.81 1016.54 1015.80 1015.11 1014.76 1014.55 1014.21 1013.76 1013.77 1013.85 1013.80
1010.49 1010.65 1010.71 1010.05 1010.50 1010.65 1011.05 1011.19 1011.52 1012.45 1012.81 1013.49 1013.85 1014.07 1014.18 1014.36 1014.40 1013.95 1014.18 1014.61 1014.89 1015.16 1015.29 1015.54 1015.76 1015.92 1016.17 1016.09 1015.70 1015.32 1014.88 1015.24 1015.45 1015.41 1015.42 1014.77 1014.33 1014.14 1014.27 1014.17 1014.00 1014.02 1014.24
1010.85 1010.94 1011.05 1010.94 1010.78 1010.85 1010.85 1011.07 1011.39 1012.02 1012.47 1012.89 1013.26 1013.84 1013.99 1014.16 1013.79 1013.67 1013.89 1014.32 1014.16 1014.85 1015.37 1015.57 1016.04 1016.05 1015.75 1015.58 1015.61 1015.35 1014.89 1014.90 1015.16 1014.72 1014.97 1014.55 1014.11 1013.98 1013.95 1013.86 1013.98 1014.14 1014.26
1010.92 1011.25 1011.32 1011.41 1011.43 1011.75 1011.95 1012.08 1012.12 1012.23 1012.54 1012.75 1013.03 1013.27 1013.55 1013.69 1013.41 1013.39 1013.44 1013.80 1014.04 1014.30 1015.30 1015.42 1015.43 1015.54 1015.65 1015.46 1015.37 1014.94 1014.70 1014.49 1014.24 1014.65 1014.39 1014.25 1013.76 1013.41 1013.27 1013.54 1013.61 1013.95 1014.01
1011.44 1011.46 1011.24 1011.41 1011.73 1011.99 1012.14 1012.29 1012.76 1012.65 1012.48 1012.75 1013.25 1013.37 1013.48 1013.59 1013.80 1013.91 1014.10 1014.01 1014.44 1014.70 1014.99 1015.29 1015.32 1015.24 1015.19 1015.29 1015.16 1014.73 1014.38 1014.08 1013.56 1013.79 1013.98 1013.59 1013.40 1013.24 1013.11 1012.94 1013.10 1013.27 1013.42
1011.27 1011.49 1011.81 1011.83 1011.95 1012.07 1012.24 1012.56 1012.63 1013.29 1013.20 1013.77 1013.94 1013.95 1013.92 1013.79 1014.26 1014.36 1014.53 1014.50 1014.72 1014.93 1014.94 1014.97 1015.20 1014.92 1014.64 1014.88 1014.75 1014.50 1013.98 1013.96 1013.56 1013.41 1013.54 1013.29 1013.02 1012.57 1012.72 1012.74 1012.64 1012.84 1012.90
1011.89 1012.08 1012.21 1012.33 1012.49 1012.41 1012.59 1012.72 1012.99 1013.34 1013.84 1014.44 1014.27 1014.55 1014.86 1014.93 1014.86 1014.85 1014.97 1014.75 1015.02 1014.96 1014.93 1014.78 1014.67 1014.89 1014.85 1014.39 1014.29 1014.29 1014.15 1014.15 1013.92 1013.63 1013.64 1013.12 1012.77 1012.43 1012.43 1012.38 1012.28 1012.13 1012.18
1012.74 1012.72 1012.97 1013.26 1013.36 1013.44 1013.41 1013.44 1013.82 1014.41 1014.67 1014.96 1015.13 1015.01 1015.66 1015.49 1015.64 1015.76 1015.59 1015.31 1015.37 1015.12 1015.19 1015.11 1015.10 1015.07 1014.99 1014.74 1014.70 1014.45 1014.42 1014.42 1014.65 1014.23 1014.38 1014.05 1013.54 1012.78 1012.57 1012.42 1012.24 1011.81 1011.68
1013.26 1013.32 1013.35 1013.65 1013.82 1014.04 1014.31 1014.71 1014.93 1015.17 1015.35 1015.83 1015.79 1015.89 1015.96 1015.95 1015.88 1016.03 1015.69 1015.85 1015.74 1015.45 1015.47 1015.55 1015.39 1015.13 1015.12 1015.06 1014.91 1014.88 1014.46 1015.09 1014.87 1014.85 1014.74 1014.05 1014.26 1013.69 1013.24 1012.81 1012.71 1012.13 1011.48
1014.22 1014.29 1014.37 1014.63 1014.85 1015.06 1015.37 1015.58 1015.76 1015.99 1016.08 1016.31 1016.34 1016.30 1016.34 1016.38 1016.25 1016.25 1016.17 1015.97 1015.79 1015.75 1015.66 1015.33 1015.30 1015.31 1015.06 1014.85 1014.68 1014.49 1014.98 1014.90 1015.08 1014.99 1014.87 1014.66 1014.28 1014.06 1013.70 1013.44 1012.74 1012.68 1012.41
1015.19 1015.32 1015.60 1015.78 1015.98 1016.12 1016.41 1016.55 1016.64 1016.78 1016.81 1016.72 1016.46 1016.35 1016.44 1016.46 1016.38 1016.25 1016.17 1016.07 1015.95 1015.77 1015.36 1015.18 1015.16 1014.81 1014.29 1014.09 1014.11 1014.34 1014.54 1014.54 1014.65 1014.77 1014.71 1014.64 1014.32 1014.09 1013.99 1013.61 1013.46 1012.96 1012.64
1016.32 1016.43 1016.46 1016.71 1016.85 1016.94 1017.05 1017.15 1017.08 1016.94 1016.84 1016.69 1016.60 1016.71 1016.80 1016.90 1016.60 1016.08 1015.85 1015.70 1015.41 1015.15 1014.97 1014.79 1014.44 1014.18 1014.14 1014.16 1014.24 1014.36 1014.40 1014.32 1014.38 1014.37 1014.26 1014.26 1014.18 1014.04 1013.84 1013.61 1013.38 1013.13 1012.89
1016.73 1016.98 1017.13 1017.25 1017.26 1017.35 1017.48 1017.54 1017.45 1017.18 1016.89 1016.70 1016.55 1016.43 1016.22 1016.07 1015.87 1015.47 1015.02 1014.77 1014.58 1014.30 1014.02 1013.92 1013.87 1013.84 1013.92 1014.08 1014.15 1014.07 1013.86 1013.81 1013.88 1013.84 1013.99 1013.97 1013.78 1013.68 1013.61 1013.45 1013.19 1012.91 1012.72
1017.29 1017.36 1017.46 1017.45 1017.51 1017.51 1017.56 1017.49 1017.33 1017.12 1016.88 1016.60 1016.40 1016.35 1016.19 1015.98 1015.68 1015.45 1015.19 1014.94 1014.64 1014.38 1014.14 1013.90 1013.78 1013.68 1013.56 1013.45 1013.32 1013.16 1013.12 1013.23 1013.28 1013.11 1013.13 1013.33 1013.32 1013.08 1012.98 1012.91 1012.74 1012.62 1012.37
Wind_Speed
10 8 7 7 7 7 6 6 7 6 7 6 6 4 4 3 2 3 3 2 2 3 2 2 3 2 2 2 3 3 2 1 1 3 2 2 3 4 6 2 3 3 4
11 11 10 9 9 9 9 9 8 8 6 7 7 7 6 4 4 4 3 2 4 4 2 3 1 2 2 2 1 2 2 2 1 2 2 3 2 4 4 3 3 3 3
9 9 9 10 9 9 8 7 7 7 7 7 7 6 7 6 6 5 6 5 3 3 3 4 3 2 1 1 1 1 1 2 2 1 2 2 2 3 3 3 3 4 3
8 8 10 12 13 11 8 7 7 7 8 7 5 5 5 5 5 4 4 4 2 2 1 2 3 4 4 3 1 1 1 2 2 2 2 2 1 3 2 3 4 3 3
10 10 10 10 7 8 8 9 8 6 6 7 6 4 3 4 3 5 4 4 4 2 2 2 3 6 7 6 2 2 0 1 1 1 2 2 2 3 2 3 2 3 2
3 4 5 5 5 7 7 8 8 8 6 6 6 7 6 3 7 10 6 4 4 1 1 2 2 4 3 5 2 2 3 2 1 1 1 1 3 2 2 2 2 4 3
10 9 7 4 3 6 5 6 6 8 8 7 5 5 6 4 6 7 7 4 2 2 3 3 4 3 5 3 1 4 6 4 5 3 3 4 2 2 1 3 2 1 3
9 8 5 6 4 4 5 6 4 4 6 6 6 4 3 4 6 6 5 2 2 1 3 5 6 6 5 4 2 1 2 4 3 1 4 5 4 4 3 3 2 3 4
11 8 11 7 6 7 4 8 4 2 2 4 5 6 5 4 6 7 4 1 2 3 2 4 4 5 7 8 3 1 4 4 5 7 7 6 7 7 7 2 2 1 2
6 16 19 13 14 14 14 4 6 4 5 4 5 6 6 5 6 7 6 3 3 2 4 5 6 6 8 9 5 3 2 4 3 4 5 6 6 6 10 8 5 3 2
3 7 15 20 21 19 20 13 8 6 5 5 5 3 5 5 5 7 8 4 3 2 2 4 4 4 6 7 6 4 6 4 4 3 4 5 6 5 5 6 7 4 3
4 5 11 8 6 10 17 13 9 7 6 5 4 2 2 2 5 5 8 9 7 4 4 3 5 5 7 8 6 8 8 5 3 3 2 4 4 4 3 4 6 5 4
5 5 7 9 11 7 8 11 6 5 4 4 3 3 3 3 4 8 10 12 9 4 4 6 6 7 8 6 9 11 5 3 3 3 4 3 3 4 5 2 1 2 3
4 3 2 7 7 6 5 5 5 4 4 3 4 4 3 3 5 4 4 5 7 6 5 3 3 6 8 7 5 4 2 3 4 5 5 4 2 2 1 1 2 1 1
3 3 1 1 2 3 3 3 3 3 4 4 3 3 2 4 5 4 6 5 5 4 3 1 2 2 4 4 4 5 4 4 4 3 4 4 4 2 3 3 2 1 3
6 3 2 0 3 1 2 1 1 2 2 5 1 2 2 8 9 10 7 8 6 12 2 3 3 3 4 4 5 5 4 6 3 5 4 5 5 5 4 3 3 4 4
5 5 3 4 4 2 1 3 3 5 15 11 8 8 6 7 8 7 3 5 3 6 2 2 3 3 4 4 5 4 4 5 3 4 5 5 5 4 4 4 5 4 4
3 4 2 2 1 3 2 2 3 3 4 3 8 7 8 10 8 8 6 4 3 2 1 1 3 3 2 3 3 3 3 5 4 4 5 5 4 4 4 5 4 4 4
4 4 4 4 3 5 4 5 4 5 5 4 4 5 7 10 9 9 6 3 1 2 2 1 1 2 2 2 2 3 4 4 5 5 5 4 4 1 3 4 4 6 5
5 7 6 4 4 4 4 5 5 4 5 4 4 4 2 1 3 3 3 3 2 3 3 3 3 3 2 4 4 4 4 5 5 4 5 6 6 6 5 4 3 2 3
4 5 8 5 5 4 4 4 4 4 4 3 3 3 3 3 3 2 2 2 2 2 2 1 1 2 1 2 1 2 4 2 2 3 3 3 5 6 5 4 6 8 4
6 6 7 7 5 6 5 4 4 4 4 3 2 3 6 3 2 2 2 1 1 1 2 1 2 3 3 2 1 2 1 1 2 2 2 3 1 3 3 4 4 5 5
6 7 7 6 5 6 6 5 5 4 3 2 2 2 2 1 2 3 3 3 3 4 4 4 4 4 3 3 4 4 5 5 6 4 3 3 2 1 2 2 4 4 5
5 6 6 5 5 5 4 4 3 4 4 4 3 2 2 2 4 4 5 4 5 5 4 4 4 5 4 4 4 4 5 5 4 5 6 4 3 4 2 2 2 3 4
5 5 5 5 5 4 4 3 2 2 2 1 2 2 3 4 5 5 5 5 5 4 5 5 5 7 8 10 9 10 10 11 8 7 5 6 6 6 5 4 4 3 3
5 5 5 4 4 4 3 2 3 3 4 4 4 4 5 5 5 5 5 4 4 5 6 4 5 9 10 9 12 14 14 15 11 14 8 5 6 6 5 6 7 4 5
Wind_Direction
166 167 168 167 161 148 144 147 152 147 148 150 156 150 149 136 112 100 116 91 136 97 88 57 57 76 64 25 5 19 37 96 181 301 275 294 299 339 322 331 250 261 282
181 178 174 159 159 160 169 166 161 158 157 160 161 163 167 168 165 141 126 108 121 132 116 115 123 95 69 17 31 37 12 353 154 263 302 315 318 322 320 343 355 355 335
185 174 166 170 166 172 166 160 162 161 163 165 159 169 175 181 174 165 160 161 127 150 158 161 183 131 29 5 28 37 0 346 336 262 289 310 295 340 340 347 326 9 1
181 182 180 175 181 173 165 169 164 170 165 174 184 178 183 183 181 168 165 151 142 148 171 174 182 202 193 175 156 118 71 32 351 331 311 304 318 324 351 344 344 357 337
179 184 190 187 169 166 167 164 164 171 175 170 167 182 182 190 191 170 161 142 144 164 199 264 277 247 207 195 178 257 128 87 2 356 322 319 327 341 2 323 314 303 319
245 196 177 187 206 186 174 174 163 159 159 162 177 162 174 201 175 168 160 159 151 107 185 263 298 331 198 207 224 357 228 202 263 212 262 277 288 292 325 329 334 3 336
54 20 27 6 248 192 191 169 189 171 154 164 158 151 181 199 184 174 157 132 131 184 246 266 264 198 171 184 344 1 341 333 252 207 215 221 238 230 310 323 336 315 266
66 41 354 78 48 320 288 216 203 178 157 154 160 166 152 188 200 194 183 154 122 236 239 283 262 253 215 196 195 325 337 307 303 281 243 260 251 250 211 206 214 266 284
121 86 272 224 197 179 211 273 247 178 211 154 155 160 170 206 210 198 171 251 280 282 276 297 290 228 226 197 182 282 326 318 308 306 301 276 272 243 209 160 276 29 302
206 178 230 224 211 191 166 178 230 194 193 159 158 168 192 209 207 192 173 173 257 267 288 293 306 234 214 194 190 202 302 277 303 328 317 297 256 255 224 201 169 175 225
91 226 252 246 220 188 156 161 229 199 171 169 160 161 194 200 218 199 180 187 223 217 257 295 283 288 209 217 203 200 226 207 278 300 301 296 300 279 235 208 186 160 166
308 359 359 2 145 135 146 130 209 161 160 147 144 178 229 240 237 228 209 209 191 190 240 256 274 273 252 258 256 243 241 252 271 280 293 293 297 321 311 206 185 188 189
27 53 65 63 76 69 119 173 164 145 145 145 152 190 243 238 237 222 218 218 207 196 195 234 256 278 278 283 278 276 264 211 220 277 269 248 245 287 309 8 67 231 242
80 4 329 118 142 151 144 146 125 149 138 160 182 211 232 256 258 234 221 214 226 221 229 251 272 276 271 269 305 304 274 237 219 226 239 234 262 271 282 257 256 171 335
12 347 15 87 117 131 141 150 147 188 169 172 192 198 230 279 271 244 196 202 194 202 112 27 317 304 301 307 304 292 287 276 268 242 242 240 231 221 238 195 212 188 200
28 351 348 98 119 113 161 172 156 193 180 242 229 186 258 248 283 291 235 225 181 144 140 206 231 232 264 289 296 297 285 276 244 256 255 250 244 225 229 211 194 207 213
30 358 73 14 4 332 349 47 20 37 57 58 86 47 18 282 348 346 4 97 122 139 194 224 260 285 291 289 276 264 283 288 274 266 258 244 238 258 226 217 208 196 229
64 52 22 306 298 68 103 104 101 92 73 62 39 51 31 54 60 70 99 98 85 53 228 262 278 276 279 288 293 289 313 305 289 275 276 274 263 226 214 231 212 215 239
80 95 101 89 63 73 83 80 77 67 69 53 42 56 42 33 46 57 38 85 39 19 317 41 19 15 340 332 329 360 353 3 2 5 355 360 347 285 264 249 241 223 211
61 69 69 75 76 66 49 60 65 73 73 58 41 33 15 87 52 45 46 41 45 56 23 20 34 44 8 11 13 28 27 18 5 34 9 357 351 350 347 317 284 250 223
79 68 85 72 62 65 74 78 75 74 79 72 55 5 48 97 77 54 67 50 49 79 67 56 64 66 349 38 104 9 82 358 31 18 335 41 353 332 354 346 341 326 289
71 69 67 69 63 60 57 67 74 79 86 98 55 24 45 68 53 23 327 316 288 233 210 181 175 205 204 179 145 82 60 12 308 274 289 314 309 317 330 322 354 344 322
59 66 64 60 58 58 54 51 66 68 69 71 77 65 27 11 315 265 252 259 260 258 242 223 215 227 226 202 197 191 196 207 211 211 226 245 278 306 304 330 334 348 338
72 75 79 70 64 72 70 61 55 60 61 32 15 336 307 290 260 258 243 248 257 259 270 274 269 258 254 240 232 239 238 234 221 225 219 223 256 259 258 280 292 305 305
65 69 70 70 64 61 63 56 38 2 360 9 321 294 285 289 290 282 267 255 274 271 248 259 254 246 248 243 241 238 237 231 218 210 221 230 235 249 258 260 256 266 270
51 47 43 44 48 39 37 15 327 301 299 297 297 293 288 275 277 281 286 283 282 269 277 272 259 252 249 246 245 242 238 240 232 233 219 214 230 239 227 235 252 250 258